When you browse on this site, cookies collect data to enhance your experience and personalize the content and advertising you see.
Visit our Privacy Policy to learn more. By continuing to use the site, you agree to this use of cookies and data.
  • In Portugal
  • List of Countries
  • For 7 days
  • Water Temperature
  • Satellite Maps
  • Weather Map
  • Weather Widgets
  • user-avatar
    Login

    Hourly Weather Solden

    Today, 16 December, Sunday

    Time Temperature Precipitation Wind Pressure Humidity
    00:00 -13°C° 0 mm 1 mps 575 mmHg 47%
    01:00 -12°C° 0 mm 1 mps 575 mmHg 45%
    02:00 -11°C° 0 mm 1 mps 576 mmHg 48%
    03:00 -13°C° 0 mm 2 mps 576 mmHg 51%
    04:00 -12°C° 0 mm 2 mps 576 mmHg 54%
    05:00 -12°C° 0.2 mm 2 mps 576 mmHg 59%
    06:00 -10°C° 0.2 mm 1 mps 576 mmHg 64%
    07:00 -9°C° 0.2 mm 1 mps 576 mmHg 69%
    08:00 -9°C° 0.1 mm 1 mps 576 mmHg 67%
    09:00 -8°C° 0.1 mm 1 mps 577 mmHg 66%
    10:00 -7°C° 0.1 mm 1 mps 577 mmHg 64%
    11:00 -6°C° 0 mm 1 mps 577 mmHg 64%
    12:00 -4°C° 0 mm 1 mps 578 mmHg 64%
    13:00 -3°C° 0 mm 1 mps 578 mmHg 63%
    14:00 -4°C° 0 mm 1 mps 578 mmHg 67%
    15:00 -6°C° 0 mm 1 mps 577 mmHg 70%
    16:00 -7°C° 0 mm 1 mps 577 mmHg 74%
    17:00 -7°C° 0.1 mm 1 mps 577 mmHg 75%
    18:00 -8°C° 0.1 mm 1 mps 577 mmHg 77%
    19:00 -8°C° 0.1 mm 1 mps 577 mmHg 78%
    20:00 -8°C° 0.2 mm 1 mps 577 mmHg 79%
    21:00 -8°C° 0.2 mm 1 mps 577 mmHg 80%
    22:00 -8°C° 0.2 mm 1 mps 577 mmHg 81%
    23:00 -8°C° 0.2 mm 1 mps 577 mmHg 81%

    Tomorrow, 17 December, Monday

    Time Temperature Precipitation Wind Pressure Humidity
    00:00 -8°C° 0.2 mm 1 mps 577 mmHg 82%
    01:00 -8°C° 0.2 mm 1 mps 577 mmHg 82%
    02:00 -8°C° 0 mm 1 mps 577 mmHg 82%
    03:00 -8°C° 0 mm 1 mps 577 mmHg 83%
    04:00 -9°C° 0 mm 2 mps 577 mmHg 83%
    05:00 -9°C° 0 mm 2 mps 577 mmHg 83%
    06:00 -9°C° 0 mm 1 mps 577 mmHg 84%
    07:00 -9°C° 0 mm 1 mps 577 mmHg 84%
    08:00 -9°C° 0 mm 2 mps 578 mmHg 83%
    09:00 -9°C° 0 mm 2 mps 579 mmHg 81%
    10:00 -8°C° 0 mm 2 mps 580 mmHg 80%
    11:00 -7°C° 0 mm 2 mps 580 mmHg 77%
    12:00 -6°C° 0 mm 2 mps 581 mmHg 74%
    13:00 -6°C° 0 mm 2 mps 581 mmHg 72%
    14:00 -7°C° 0 mm 2 mps 581 mmHg 75%
    15:00 -7°C° 0 mm 2 mps 581 mmHg 78%
    16:00 -8°C° 0 mm 2 mps 581 mmHg 81%
    17:00 -9°C° 0 mm 2 mps 581 mmHg 81%
    18:00 -10°C° 0 mm 2 mps 581 mmHg 81%
    19:00 -12°C° 0 mm 2 mps 581 mmHg 81%
    20:00 -12°C° 0 mm 2 mps 582 mmHg 80%
    21:00 -12°C° 0 mm 2 mps 582 mmHg 79%
    22:00 -12°C° 0 mm 2 mps 582 mmHg 79%
    23:00 -13°C° 0 mm 2 mps 582 mmHg 79%

    Day after tomorrow, 18 December, Tuesday

    Time Temperature Precipitation Wind Pressure Humidity
    00:00 -13°C° 0 mm 2 mps 582 mmHg 79%
    01:00 -13°C° 0 mm 2 mps 582 mmHg 79%
    02:00 -13°C° 0 mm 2 mps 582 mmHg 76%
    03:00 -13°C° 0 mm 2 mps 582 mmHg 74%
    04:00 -14°C° 0 mm 2 mps 582 mmHg 71%
    05:00 -11°C° 0 mm 1 mps 582 mmHg 66%
    06:00 -11°C° 0 mm 1 mps 582 mmHg 61%
    07:00 -11°C° 0 mm 1 mps 582 mmHg 56%
    08:00 -10°C° 0 mm 1 mps 583 mmHg 55%
    09:00 -9°C° 0 mm 1 mps 584 mmHg 55%
    10:00 -7°C° 0 mm 1 mps 584 mmHg 54%
    11:00 -6°C° 0 mm 1 mps 584 mmHg 54%
    12:00 -3°C° 0 mm 1 mps 585 mmHg 55%
    13:00 -4°C° 0 mm 2 mps 585 mmHg 55%
    14:00 -5°C° 0 mm 2 mps 584 mmHg 58%
    15:00 -6°C° 0 mm 1 mps 583 mmHg 62%
    16:00 -7°C° 0 mm 1 mps 582 mmHg 65%
    17:00 -9°C° 0 mm 2 mps 582 mmHg 63%
    18:00 -10°C° 0 mm 2 mps 581 mmHg 61%
    19:00 -12°C° 0 mm 2 mps 581 mmHg 59%
    20:00 -12°C° 0 mm 2 mps 581 mmHg 57%
    21:00 -12°C° 0 mm 2 mps 581 mmHg 55%
    22:00 -12°C° 0 mm 2 mps 581 mmHg 52%
    23:00 -10°C° 0 mm 2 mps 580 mmHg 51%

    19 December, Wednesday

    Time Temperature Precipitation Wind Pressure Humidity
    00:00 -10°C° 0 mm 2 mps 580 mmHg 50%
    01:00 -10°C° 0 mm 2 mps 580 mmHg 48%
    02:00 -10°C° 0 mm 2 mps 580 mmHg 47%
    03:00 -10°C° 0 mm 2 mps 580 mmHg 47%
    04:00 -10°C° 0 mm 2 mps 579 mmHg 46%
    05:00 -8°C° 0 mm 1 mps 579 mmHg 46%
    06:00 -8°C° 0 mm 1 mps 579 mmHg 46%
    07:00 -8°C° 0 mm 1 mps 580 mmHg 46%
    08:00 -7°C° 0 mm 1 mps 580 mmHg 48%
    09:00 -6°C° 0 mm 1 mps 581 mmHg 50%
    10:00 -4°C° 0 mm 1 mps 581 mmHg 52%
    11:00 -3°C° 0 mm 1 mps 581 mmHg 54%
    12:00 -2°C° 0 mm 1 mps 581 mmHg 56%
    13:00 -3°C° 0 mm 2 mps 581 mmHg 58%
    14:00 -5°C° 0 mm 2 mps 581 mmHg 63%
    15:00 -6°C° 0 mm 2 mps 580 mmHg 68%
    16:00 -7°C° 0 mm 2 mps 579 mmHg 73%
    17:00 -8°C° 0 mm 2 mps 579 mmHg 75%
    18:00 -8°C° 0 mm 2 mps 579 mmHg 77%
    19:00 -9°C° 0 mm 2 mps 578 mmHg 79%
    20:00 -9°C° 0 mm 2 mps 578 mmHg 80%
    21:00 -9°C° 0 mm 2 mps 579 mmHg 82%
    22:00 -8°C° 0 mm 2 mps 579 mmHg 83%
    23:00 -9°C° 0.2 mm 2 mps 579 mmHg 85%

    20 December, Thursday

    Time Temperature Precipitation Wind Pressure Humidity
    00:00 -9°C° 0.2 mm 2 mps 579 mmHg 87%
    01:00 -8°C° 0.2 mm 1 mps 579 mmHg 89%
    02:00 -7°C° 0.6 mm 1 mps 579 mmHg 90%
    03:00 -7°C° 0.6 mm 1 mps 579 mmHg 91%
    04:00 -7°C° 0.6 mm 1 mps 579 mmHg 92%
    05:00 -7°C° 0.5 mm 1 mps 579 mmHg 92%
    06:00 -7°C° 0.5 mm 1 mps 579 mmHg 92%
    07:00 -7°C° 0.5 mm 1 mps 579 mmHg 91%
    08:00 -7°C° 0.6 mm 1 mps 579 mmHg 90%
    09:00 -6°C° 0.6 mm 1 mps 580 mmHg 89%
    10:00 -6°C° 0.6 mm 1 mps 580 mmHg 88%
    11:00 -4°C° 0.3 mm 1 mps 580 mmHg 87%
    12:00 -6°C° 0.3 mm 2 mps 581 mmHg 85%
    13:00 -5°C° 0.3 mm 2 mps 581 mmHg 84%
    14:00 -6°C° 0.2 mm 2 mps 581 mmHg 85%
    15:00 -6°C° 0.2 mm 2 mps 580 mmHg 86%
    16:00 -7°C° 0.2 mm 2 mps 580 mmHg 88%
    17:00 -8°C° 0 mm 2 mps 580 mmHg 88%
    18:00 -8°C° 0 mm 2 mps 580 mmHg 88%
    19:00 -9°C° 0 mm 2 mps 580 mmHg 88%
    20:00 -10°C° 0 mm 2 mps 580 mmHg 88%
    21:00 -10°C° 0 mm 2 mps 580 mmHg 87%
    22:00 -10°C° 0 mm 2 mps 581 mmHg 87%
    23:00 -12°C° 0 mm 2 mps 580 mmHg 86%

    21 December, Friday

    Time Temperature Precipitation Wind Pressure Humidity
    00:00 -12°C° 0 mm 2 mps 580 mmHg 86%
    01:00 -12°C° 0 mm 2 mps 580 mmHg 86%
    02:00 -13°C° 0 mm 2 mps 580 mmHg 84%
    03:00 -13°C° 0 mm 2 mps 580 mmHg 82%
    04:00 -12°C° 0 mm 1 mps 580 mmHg 81%
    05:00 -12°C° 0 mm 1 mps 580 mmHg 78%
    06:00 -12°C° 0 mm 1 mps 580 mmHg 75%
    07:00 -12°C° 0 mm 1 mps 580 mmHg 72%
    08:00 -10°C° 0 mm 1 mps 581 mmHg 70%
    09:00 -9°C° 0 mm 1 mps 582 mmHg 68%
    10:00 -7°C° 0 mm 1 mps 582 mmHg 66%
    11:00 -6°C° 0 mm 1 mps 583 mmHg 66%
    12:00 -6°C° 0 mm 2 mps 583 mmHg 65%
    13:00 -4°C° 0 mm 2 mps 583 mmHg 65%
    14:00 -5°C° 0 mm 2 mps 582 mmHg 70%
    15:00 -6°C° 0 mm 2 mps 582 mmHg 74%
    16:00 -6°C° 0 mm 1 mps 581 mmHg 79%
    17:00 -7°C° 0.1 mm 2 mps 581 mmHg 79%
    18:00 -7°C° 0.1 mm 2 mps 581 mmHg 80%
    19:00 -7°C° 0.1 mm 2 mps 581 mmHg 80%
    20:00 -7°C° 0.1 mm 2 mps 582 mmHg 79%
    21:00 -7°C° 0.1 mm 2 mps 582 mmHg 79%
    22:00 -7°C° 0.1 mm 2 mps 582 mmHg 78%
    23:00 -7°C° 0 mm 2 mps 582 mmHg 78%
    Show more